Weather History for KTIP - October, 2012

Change the Weather History Date:

Saturday, October 27, 2012

  Actual Average (KCMI) Record (KCMI)
Temperature  
Mean Temperature 42 °F 50 °F  
Max Temperature 51 °F 61 °F 78 °F (2000)
Min Temperature 35 °F 39 °F 6 °F (2005)
Degree Days  
Heating Degree Days 22 15  
Month to date heating degree days 304  
Since 1 July heating degree days 396  
Cooling Degree Days 0 0  
Month to date cooling degree days 14  
Year to date cooling degree days 939  
Moisture  
Dew Point 33 °F    
Average Humidity 70    
Maximum Humidity 87    
Minimum Humidity 49    
Precipitation  
Precipitation 0.00 in 0.10 in 0.28 in (1998)
Month to date precipitation 2.76  
Year to date precipitation 33.32  
Sea Level Pressure  
Sea Level Pressure 30.25 in    
Wind  
Wind Speed 11 mph (North)    
Max Wind Speed 17 mph    
Max Gust Speed 22 mph    
Visibility 10 miles    
Events      
T = Trace of Precipitation, MM = Missing Value Source: NWS Daily Summary

Daily Weather History Graph

Daily Weather History Graph

Search for Another Location

Airport or City:

Trip Planner

Search our weather history database for the weather conditions in past years. The results will help you decide how hot, cold, wet, or windy it might be!

Date:

Astronomy

Oct. 27, 2012 Rise Set
Actual Time 7:17 AM CDT 5:55 PM CDT
Civil Twilight 6:49 AM CDT 6:23 PM CDT
Nautical Twilight 6:17 AM CDT 6:55 PM CDT
Astronomical Twilight 5:45 AM CDT 7:26 PM CDT
Moon 4:41 PM CDT (10/27) 5:11 AM CDT (10/27)
Length of Visible Light 11h 34m
Length of Day
10h 38m
Waxing Gibbous, 96% of the Moon is Illuminated
Oct 27
Waxing Gibbous
Oct 29
Full
Nov 6
Last Quarter
Nov 13
New
Nov 20
First Quarter

Hourly Weather History & Observations

Time (CDT) Temp. Windchill Dew Point Humidity Pressure Visibility Wind Dir Wind Speed Gust Speed Precip Events Conditions
12:15 AM 39.2 °F 33.0 °F 34.7 °F 84% 30.28 in 10.0 mi NW 9.2 mph - N/A   Clear
12:35 AM 39.7 °F 32.3 °F 33.1 °F 77% 30.27 in 10.0 mi NNW 12.7 mph - N/A   Clear
12:55 AM 40.1 °F 33.6 °F 32.7 °F 75% 30.27 in 10.0 mi NNW 10.4 mph 18.4 mph N/A   Clear
1:15 AM 39.2 °F 33.6 °F 32.7 °F 78% 30.27 in 10.0 mi NNW 8.1 mph - N/A   Clear
1:35 AM 39.2 °F 32.0 °F 32.0 °F 75% 30.26 in 10.0 mi NNW 11.5 mph - N/A   Clear
1:55 AM 38.3 °F 30.9 °F 32.0 °F 78% 30.26 in 10.0 mi NNW 11.5 mph - N/A   Clear
2:15 AM 38.3 °F 30.5 °F 32.0 °F 78% 30.26 in 10.0 mi NNW 12.7 mph - N/A   Clear
2:35 AM 38.3 °F 30.9 °F 32.0 °F 78% 30.25 in 10.0 mi NNW 11.5 mph - N/A   Clear
2:55 AM 37.8 °F 30.7 °F 32.0 °F 80% 30.25 in 10.0 mi NNW 10.4 mph - N/A   Clear
3:35 AM 36.9 °F 30.7 °F 32.2 °F 83% 30.25 in 10.0 mi NNW 8.1 mph - N/A   Clear
3:55 AM 36.5 °F 29.2 °F 32.4 °F 85% 30.25 in 10.0 mi NNW 10.4 mph - N/A   Clear
4:15 AM 36.0 °F 29.6 °F 32.4 °F 87% 30.26 in 10.0 mi NNW 8.1 mph - N/A   Clear
4:35 AM 36.1 °F 29.9 °F 32.4 °F 86% 30.26 in 10.0 mi NNW 8.1 mph - N/A   Clear
4:55 AM 36.5 °F 29.2 °F 32.2 °F 84% 30.25 in 10.0 mi North 10.4 mph - N/A   Clear
5:15 AM 36.5 °F 28.7 °F 32.2 °F 84% 30.25 in 10.0 mi NNW 11.5 mph - N/A   Clear
5:35 AM 36.1 °F 29.3 °F 32.2 °F 86% 30.25 in 10.0 mi North 9.2 mph - N/A   Clear
5:55 AM 36.5 °F 29.7 °F 32.4 °F 85% 30.26 in 10.0 mi North 9.2 mph - N/A   Clear
6:15 AM 36.5 °F 29.7 °F 32.5 °F 86% 30.26 in 10.0 mi North 9.2 mph - N/A   Scattered Clouds
6:55 AM 36.1 °F 27.7 °F 32.0 °F 85% 30.29 in 10.0 mi North 12.7 mph 18.4 mph N/A   Clear
7:15 AM 35.8 °F 27.3 °F 32.0 °F 86% 30.28 in 10.0 mi North 12.7 mph - N/A   Clear
7:35 AM 35.6 °F 27.5 °F 32.0 °F 87% 30.28 in 10.0 mi North 11.5 mph - N/A   Clear
7:55 AM 35.8 °F 26.9 °F 32.0 °F 86% 30.28 in 10.0 mi North 13.8 mph 19.6 mph N/A   Clear
8:15 AM 36.9 °F 28.2 °F 32.0 °F 83% 30.28 in 10.0 mi North 13.8 mph - N/A   Clear
8:35 AM 38.3 °F 30.5 °F 32.0 °F 78% 30.28 in 10.0 mi North 12.7 mph - N/A   Clear
8:55 AM 39.2 °F 30.8 °F 32.0 °F 75% 30.28 in 10.0 mi North 15.0 mph 20.7 mph N/A   Clear
9:15 AM 41.0 °F 34.3 °F 33.1 °F 73% 30.28 in 10.0 mi North 11.5 mph - N/A   Clear
9:35 AM 42.4 °F 36.1 °F 33.8 °F 71% 30.28 in 10.0 mi North 11.5 mph - N/A   Clear
9:55 AM 43.5 °F 36.4 °F 34.0 °F 69% 30.28 in 10.0 mi North 15.0 mph - N/A   Clear
10:15 AM 44.8 °F 38.7 °F 34.7 °F 68% 30.29 in 10.0 mi North 12.7 mph - N/A   Clear
10:35 AM 45.3 °F 38.4 °F 34.9 °F 67% 30.30 in 10.0 mi NNW 16.1 mph - N/A   Clear
10:55 AM 46.4 °F 39.8 °F 35.6 °F 66% 30.30 in 10.0 mi NNW 16.1 mph 21.9 mph N/A   Clear
11:15 AM 46.9 °F - 35.8 °F 65% 30.30 in 10.0 mi NNW 12.7 mph - N/A   Clear
11:35 AM 46.8 °F - 35.2 °F 64% 30.29 in 10.0 mi North 13.8 mph - N/A   Clear
11:55 AM 47.5 °F - 35.8 °F 64% 30.28 in 10.0 mi North 11.5 mph 17.3 mph N/A   Clear
12:15 PM 48.0 °F - 35.6 °F 62% 30.27 in 10.0 mi NNW 11.5 mph - N/A   Scattered Clouds
12:35 PM 48.4 °F - 35.8 °F 62% 30.26 in 10.0 mi North 11.5 mph - N/A   Scattered Clouds
12:55 PM 49.3 °F - 34.7 °F 57% 30.25 in 10.0 mi North 11.5 mph - N/A   Scattered Clouds
1:15 PM 49.1 °F - 34.7 °F 58% 30.24 in 10.0 mi North 15.0 mph 20.7 mph N/A   Scattered Clouds
1:35 PM 49.5 °F - 34.5 °F 56% 30.23 in 10.0 mi North 9.2 mph 19.6 mph N/A   Scattered Clouds
1:55 PM 49.1 °F - 34.2 °F 56% 30.22 in 10.0 mi North 15.0 mph 19.6 mph N/A   Scattered Clouds
2:15 PM 49.8 °F - 33.1 °F 53% 30.22 in 10.0 mi North 13.8 mph 20.7 mph N/A   Scattered Clouds
2:35 PM 50.4 °F - 33.6 °F 53% 30.21 in 10.0 mi North 17.3 mph - N/A   Scattered Clouds
2:55 PM 50.0 °F - 33.1 °F 52% 30.21 in 10.0 mi NNW 11.5 mph 18.4 mph N/A   Scattered Clouds
3:15 PM 50.9 °F - 32.5 °F 49% 30.21 in 10.0 mi North 12.7 mph 19.6 mph N/A   Clear
3:35 PM 50.4 °F - 32.9 °F 51% 30.20 in 10.0 mi North 12.7 mph 17.3 mph N/A   Clear
3:55 PM 50.9 °F - 32.7 °F 50% 30.21 in 10.0 mi North 11.5 mph - N/A   Clear
4:15 PM 50.7 °F - 32.2 °F 49% 30.21 in 10.0 mi North 13.8 mph 19.6 mph N/A   Clear
4:35 PM 50.2 °F - 32.5 °F 51% 30.21 in 10.0 mi North 11.5 mph 18.4 mph N/A   Clear
4:55 PM 49.3 °F - 32.2 °F 52% 30.22 in 10.0 mi NNW 11.5 mph 17.3 mph N/A   Clear
5:15 PM 48.6 °F - 32.0 °F 53% 30.23 in 10.0 mi NNW 12.7 mph 17.3 mph N/A   Clear
5:35 PM 47.7 °F - 32.0 °F 55% 30.23 in 10.0 mi NNW 9.2 mph - N/A   Clear
5:55 PM 46.4 °F 42.4 °F 32.0 °F 57% 30.23 in 10.0 mi NNW 8.1 mph - N/A   Clear
6:15 PM 45.5 °F 41.3 °F 32.0 °F 59% 30.24 in 10.0 mi NNW 8.1 mph - N/A   Clear
6:35 PM 44.6 °F 39.2 °F 31.8 °F 61% 30.24 in 10.0 mi NNW 10.4 mph - N/A   Clear
6:55 PM 43.9 °F 38.8 °F 32.0 °F 63% 30.24 in 10.0 mi North 9.2 mph - N/A   Clear
7:15 PM 43.7 °F 39.7 °F 32.7 °F 65% 30.24 in 10.0 mi North 6.9 mph - N/A   Clear
7:35 PM 43.5 °F 38.9 °F 33.8 °F 69% 30.24 in 10.0 mi North 8.1 mph - N/A   Clear
7:55 PM 43.0 °F 37.2 °F 34.0 °F 71% 30.24 in 10.0 mi North 10.4 mph - N/A   Clear
8:15 PM 42.8 °F 37.5 °F 34.0 °F 71% 30.24 in 10.0 mi North 9.2 mph - N/A   Clear
8:35 PM 42.4 °F 36.1 °F 33.6 °F 71% 30.24 in 10.0 mi NNE 11.5 mph - N/A   Clear
8:55 PM 42.1 °F 36.1 °F 32.9 °F 70% 30.24 in 10.0 mi NNE 10.4 mph - N/A   Clear
9:15 PM 41.9 °F 35.9 °F 32.0 °F 68% 30.24 in 10.0 mi NNE 10.4 mph 17.3 mph N/A   Clear
9:35 PM 41.2 °F 35.5 °F 32.0 °F 70% 30.24 in 10.0 mi NNE 9.2 mph - N/A   Clear
9:55 PM 40.6 °F 34.8 °F 32.0 °F 71% 30.24 in 10.0 mi NNE 9.2 mph - N/A   Clear
10:15 PM 40.5 °F 34.1 °F 31.6 °F 71% 30.23 in 10.0 mi NNE 10.4 mph - N/A   Clear
10:35 PM 40.1 °F 34.1 °F 31.6 °F 72% 30.24 in 10.0 mi North 9.2 mph - N/A   Clear
10:55 PM 39.4 °F 33.8 °F 31.6 °F 74% 30.24 in 10.0 mi North 8.1 mph - N/A   Clear
11:15 PM 39.4 °F 32.7 °F 31.1 °F 72% 30.24 in 10.0 mi North 10.4 mph - N/A   Clear
11:35 PM 39.2 °F 32.0 °F 32.0 °F 75% 30.24 in 10.0 mi North 11.5 mph - N/A   Clear
11:55 PM 38.5 °F 31.1 °F 31.1 °F 75% 30.24 in 10.0 mi North 11.5 mph - N/A   Clear